Погода в Рапла

Эстония     59°00′06″N   24°47′56″E
темп.,
°C
ветер,
м/с
пор.,
м/с
влажн.,
%
обл.,
%
осадки,
мм/ч
давл.,
гПа
погр.,
м
8 августа, пн
пн800:00+12юз2396100 0.0 102146
03:00+11юз229675 0.0 102132
06:00+11ююз2397100 0.0 102149
09:00+15ююз2484100 0.0 1022227
12:00+20юз235186 0.0 10221474
15:00+16ююз237995 0.5 1022168
18:00+19зюз335757 0.0 1022875
21:00+15сз127733 0.1 102319
9 августа, вт
вт900:00+11ссз22925 0.0 102520
03:00+11сз11935 0.0 102510
06:00+10з11944 0.0 102610
09:00+17зсз12674 0.0 1026368
12:00+22сз11467 0.0 10261684
15:00+20ссз1256100 0.0 102681
18:00+19св2459100 0.0 1026415
21:00+17сз116868 0.0 102632
10 августа, ср
ср1000:00+12с228220 0.0 102718
03:00+11с11820 0.0 102710
06:00+11юз0179100 0.0 102710
09:00+17юз1256100 0.0 1027238
12:00+21зюз2341100 0.0 10261311
15:00+23зюз2332100 0.0 10251867
18:00+22з3337100 0.0 10261654
21:00+16з2270100 0.0 102537
11 августа, чт
чт1100:00+14юз2379100 0.0 102654
03:00+13ююз2396100 0.0 102564
06:00+13ююз279814 0.0 1025139
09:00+19ююз48675 0.0 1025648
12:00+23юз574196 0.0 10241359
15:00+24юз673956 0.0 10231368
18:00+23юз575036 0.0 10231153
21:00+18юз386768 0.0 1023261
12 августа, пт
пт1200:00+15юз39839 0.0 1024197
03:00+14юз28871 0.0 1024158
06:00+13ююз28970 0.0 1024164
09:00+20юз47660 0.0 1024422
12:00+25юз46410 0.0 10241087
15:00+26юз56390 0.0 10231331
18:00+25юз46445 0.0 10231139
21:00+18юз26698 0.0 1023109